Flag for Moldova Weather past 2 weeks in Chisinau, Moldova

Now
73 °F

Scattered clouds.


Feels Like: 77 °F
Forecast: 54 / 79 °F
Wind: 3 mph from North

Location: Chisinau International Airport

Current Time: May 30, 2015 at 4:34:15 PM

Latest Report: May 30, 2015 at 4:00 PM


Visibility: N/A

Pressure: 29.92 "Hg

Humidity: 31%

Dew point: 41 °F

Location of ChisinauLocation

Historic Weather in Chisinau — Graph

°F

Chisinau temperature yesterday

Maximum temperature yesterday: 70 °F (at 1:30 PM)
Minimum temperature yesterday: 55 °F (at 12:00 AM)
Average temperature yesterday: 63 °F

Past Weeks' High & Low Weather Summary

 TemperatureHumidityPressure
High84 °F (May 24, 3:30 PM)88% (May 19, 6:00 AM)30.09 "Hg (May 19, 6:00 AM)
Low46 °F (May 17, 3:30 AM)23% (May 23, 3:00 PM)29.59 "Hg (May 26, 6:30 PM)
Average66 °F50%29.91 "Hg
* Reported May 15 3:00 PM — May 30 3:00 PM, Chisinau, Weather by CustomWeather, © 2015

Note: Actual official high and low records may vary slightly from our data, if they occured in-between our weather recording intervals... More about our weather records

Advertising

Chisinau weather history for previous 24 hours

 ConditionsComfort  
Time TempWeatherWind HumidityBarometerVisibility
3:00 PM
Sat, May 30
73 °FScattered clouds.3 mph27%29.92 "HgN/A
2:30 PM73 °FScattered clouds.6 mph29%29.95 "HgN/A
2:00 PM73 °FScattered clouds.10 mph29%29.95 "HgN/A
1:30 PM72 °FScattered clouds.7 mph29%29.95 "HgN/A
1:00 PM70 °FScattered clouds.10 mph31%29.95 "HgN/A
12:30 PM70 °FScattered clouds.10 mph33%29.95 "HgN/A
12:00 PM70 °FScattered clouds.10 mph29%29.95 "HgN/A
11:30 AM70 °FPartly sunny.7 mph33%29.95 "HgN/A
11:00 AM68 °FPassing clouds.5 mph40%29.95 "HgN/A
10:30 AM66 °FPassing clouds.6 mph46%29.95 "HgN/A
10:00 AM63 °FPassing clouds.6 mph49%29.95 "HgN/A
9:30 AM61 °FPassing clouds.6 mph52%29.95 "HgN/A
9:00 AM61 °FSunny.8 mph52%29.95 "Hg10 mi
8:30 AM61 °FSunny.9 mph52%29.92 "Hg10 mi
8:00 AM59 °FSunny.3 mph55%29.92 "Hg10 mi
7:30 AM57 °FSunny.6 mph59%29.92 "Hg10 mi
7:00 AM55 °FPassing clouds.3 mph63%29.92 "HgN/A
6:30 AM55 °FSunny.1 mph59%29.92 "Hg10 mi
6:00 AM55 °FPassing clouds.3 mph59%29.92 "HgN/A
5:30 AM54 °FClear.5 mph63%29.89 "Hg10 mi
5:00 AM54 °FClear.6 mph63%29.89 "Hg10 mi
4:30 AM54 °FClear.7 mph63%29.89 "Hg10 mi
4:00 AM54 °FClear.6 mph63%29.89 "Hg10 mi
3:30 AM55 °FClear.8 mph59%29.89 "Hg10 mi
3:00 AM57 °FClear.8 mph55%29.89 "Hg10 mi
2:30 AM57 °FClear.9 mph51%29.89 "Hg10 mi
2:00 AM59 °FClear.10 mph48%29.89 "Hg10 mi
1:30 AM59 °FClear.9 mph48%29.89 "Hg10 mi
1:00 AM61 °FPassing clouds.7 mph45%29.89 "HgN/A
12:30 AM61 °FClear.8 mph45%29.89 "Hg10 mi
11:30 PM
Fri, May 29
63 °FClear.9 mph42%29.89 "Hg10 mi
11:00 PM63 °FClear.9 mph42%29.89 "Hg10 mi
10:30 PM63 °FClear.8 mph42%29.89 "Hg10 mi
10:00 PM64 °FClear.10 mph37%29.86 "Hg10 mi
9:30 PM66 °FSunny.9 mph35%29.86 "Hg10 mi
9:00 PM66 °FSunny.10 mph35%29.83 "Hg10 mi
8:30 PM68 °FSunny.12 mph33%29.83 "Hg10 mi
8:00 PM68 °FSunny.14 mph33%29.83 "Hg10 mi
7:30 PM68 °FSunny.13 mph33%29.83 "Hg10 mi
7:00 PM70 °FPassing clouds.14 mph33%29.83 "HgN/A
6:30 PM70 °FSunny.14 mph31%29.80 "Hg10 mi
6:00 PM68 °FSunny.13 mph33%29.80 "Hg10 mi
5:30 PM68 °FSunny.15 mph35%29.80 "Hg10 mi
5:00 PM70 °FSunny.15 mph31%29.80 "Hg10 mi
4:30 PM70 °FSunny.15 mph31%29.80 "Hg10 mi
4:00 PM70 °FPassing clouds.16 mph33%29.80 "HgN/A
Weather by CustomWeather, © 2015

See weather overviewHow to use our weather pages